Vitoria, Spain

11:21 AM CET on January 16, 2018 (GMT +0100)
Foronda

Weather History for LEVT - February, 2014

Change the Weather History Date:

Saturday, February 8, 2014

  Actual Average Record
Temperature  
Mean Temperature 43 °F -  
Max Temperature 53 °F 52 °F 64 °F (2002)
Min Temperature 33 °F 33 °F 23 °F (2006)
Degree Days  
Heating Degree Days 22    
Moisture  
Dew Point 39 °F    
Average Humidity 77    
Maximum Humidity 100    
Minimum Humidity 62    
Precipitation  
Precipitation 0.12 in - - ()
Sea Level Pressure  
Sea Level Pressure 29.65 in    
Wind  
Wind Speed 19 mph ()    
Max Wind Speed 34 mph    
Max Gust Speed 52 mph    
Visibility 6.9 miles    
Events Rain    
Averages and records for this station are not official NWS values.
T = Trace of Precipitation, MM = Missing Value Source: Averaged Metar Reports

Daily Weather History Graph

Daily Weather History Graph

Search for Another Location

Airport or City:

Trip Planner

Search our weather history database for the weather conditions in past years. The results will help you decide how hot, cold, wet, or windy it might be!

Date:

Astronomy

Feb. 08, 2014 Rise Set
Actual Time 8:17 AM CET 6:32 PM CET
Civil Twilight 7:48 AM CET 7:02 PM CET
Nautical Twilight 7:14 AM CET 7:36 PM CET
Astronomical Twilight 6:41 AM CET 8:09 PM CET
Moon 1:14 PM CET (2/8) 3:18 AM CET (2/8)
Length of Visible Light 11h 14m
Length of Day
10h 15m
Waxing Gibbous, 66% of the Moon is Illuminated
Feb 8
Waxing Gibbous
Feb 15
Full
Feb 22
Last Quarter
Mar 1
New
Mar 8
First Quarter

Hourly Weather History & Observations

Time (CET) Temp. Windchill Dew Point Humidity Pressure Visibility Wind Dir Wind Speed Gust Speed Precip Events Conditions
12:00 AM 48.2 °F - 39.2 °F 71% 29.74 in 6.2 mi SW 29.9 mph 44.9 mph N/A   Mostly Cloudy
12:30 AM 48.2 °F - 39.2 °F 71% 29.74 in 6.2 mi SW 33.4 mph 48.3 mph N/A   Scattered Clouds
1:00 AM 48.2 °F - 39.2 °F 71% 29.74 in 6.2 mi SW 31.1 mph 47.2 mph N/A   Scattered Clouds
1:30 AM 48.2 °F - 39.2 °F 71% 29.74 in 6.2 mi SW 27.6 mph 47.2 mph N/A   Scattered Clouds
2:00 AM 50.0 °F - 39.2 °F 66% 29.71 in 6.2 mi SW 27.6 mph 41.4 mph N/A   Mostly Cloudy
2:30 AM 48.2 °F - 41.0 °F 76% 29.71 in 6.2 mi SW 27.6 mph 43.7 mph N/A Rain Light Rain
3:00 AM 48.2 °F - 41.0 °F 76% 29.68 in 6.2 mi SW 18.4 mph 36.8 mph N/A   Mostly Cloudy
3:30 AM 50.0 °F - 41.0 °F 71% 29.65 in 6.2 mi SW 24.2 mph 38.0 mph N/A   Mostly Cloudy
4:00 AM 50.0 °F - 39.2 °F 66% 29.62 in 6.2 mi SW 27.6 mph 42.6 mph N/A   Scattered Clouds
4:30 AM 50.0 °F - 39.2 °F 66% 29.59 in 6.2 mi WSW 18.4 mph 34.5 mph N/A   Scattered Clouds
5:00 AM 50.0 °F - 39.2 °F 66% 29.59 in 6.2 mi WSW 27.6 mph 46.0 mph N/A   Scattered Clouds
5:30 AM 50.0 °F - 39.2 °F 66% 29.59 in 6.2 mi SW 24.2 mph 46.0 mph N/A   Scattered Clouds
6:00 AM 50.0 °F - 39.2 °F 66% 29.56 in 6.2 mi SW 34.5 mph 51.8 mph N/A   Scattered Clouds
6:30 AM 50.0 °F - 41.0 °F 71% 29.56 in 6.2 mi SW 27.6 mph 44.9 mph N/A   Scattered Clouds
7:00 AM 48 °F - 43 °F 77% 29.61 in 5 mi SW 25.3 mph - - Rain Light Rain
7:00 AM 48.2 °F - 42.8 °F 82% 29.59 in 6.2 mi SW 24.2 mph 35.7 mph N/A Rain Light Rain
7:30 AM 46.4 °F 37.2 °F 41.0 °F 81% 29.56 in 6.2 mi SW 29.9 mph 46.0 mph N/A Rain Light Rain
8:00 AM 46.4 °F 38.3 °F 41.0 °F 81% 29.56 in 6.2 mi SW 23.0 mph 36.8 mph N/A   Mostly Cloudy
8:30 AM 46.4 °F 38.5 °F 42.8 °F 87% 29.56 in 6.2 mi SW 21.9 mph 36.8 mph N/A   Mostly Cloudy
9:00 AM 46.4 °F 39.0 °F 42.8 °F 87% 29.56 in 6.2 mi SW 19.6 mph - N/A   Mostly Cloudy
9:30 AM 46.4 °F 39.5 °F 42.8 °F 87% 29.56 in 6.2 mi SSW 17.3 mph - N/A   Mostly Cloudy
10:00 AM 49 °F - 44 °F 79% 29.58 in 16 mi SW 17.3 mph - - Rain Light Rain
10:00 AM 48.2 °F - 42.8 °F 82% 29.56 in 6.2 mi SW 18.4 mph 31.1 mph N/A   Mostly Cloudy
10:30 AM 50.0 °F - 42.8 °F 76% 29.59 in 6.2 mi WSW 17.3 mph - N/A   Scattered Clouds
11:00 AM 50.0 °F - 42.8 °F 76% 29.59 in 6.2 mi WSW 15.0 mph - N/A   Scattered Clouds
11:30 AM 51.8 °F - 41.0 °F 67% 29.62 in 6.2 mi WSW 13.8 mph - N/A   Scattered Clouds
12:00 PM 51.8 °F - 39.2 °F 62% 29.62 in 6.2 mi WSW 19.6 mph - N/A   Scattered Clouds
12:30 PM 50.0 °F - 39.2 °F 66% 29.62 in 6.2 mi SW 18.4 mph - N/A   Scattered Clouds
1:00 PM 46 °F - 42 °F 82% 29.66 in 12 mi West 11.5 mph - - Rain Light Rain
1:00 PM 46.4 °F 41.1 °F 41.0 °F 81% 29.62 in 6.2 mi West 11.5 mph - N/A Rain Light Rain
1:30 PM 46.4 °F 39.5 °F 39.2 °F 76% 29.62 in 6.2 mi West 17.3 mph - N/A   Mostly Cloudy
2:00 PM 48.2 °F - 39.2 °F 71% 29.62 in 6.2 mi West 9.2 mph - N/A   Mostly Cloudy
2:30 PM 46.4 °F 40.1 °F 39.2 °F 76% 29.62 in 5.0 mi West 15.0 mph - N/A Rain Light Rain
3:00 PM 44.6 °F 34.9 °F 37.4 °F 76% 29.62 in 3.7 mi West 28.8 mph 40.3 mph N/A Rain Light Rain
3:30 PM 44.6 °F 36.9 °F 39.2 °F 81% 29.62 in 6.2 mi SW 18.4 mph - N/A   Mostly Cloudy
4:00 PM 46 °F - 40 °F 72% 29.66 in 16 mi SW 12.7 mph - -   Partly Cloudy
4:00 PM 46.4 °F 40.7 °F 39.2 °F 76% 29.62 in 6.2 mi SW 12.7 mph 24.2 mph N/A   Scattered Clouds
4:30 PM 48.2 °F - 39.2 °F 71% 29.62 in 6.2 mi SW 10.4 mph - N/A   Partly Cloudy
5:00 PM 50.0 °F - 37.4 °F 62% 29.62 in 6.2 mi SW 15.0 mph - N/A   Scattered Clouds
5:30 PM 48.2 °F - 39.2 °F 71% 29.65 in 6.2 mi NW 6.9 mph - N/A   Scattered Clouds
6:00 PM 44.6 °F 39.7 °F 39.2 °F 81% 29.65 in 6.2 mi NNE 9.2 mph - N/A   Partly Cloudy
6:30 PM 41.0 °F 36.4 °F 37.4 °F 87% 29.68 in 6.2 mi NE 6.9 mph - N/A   Partly Cloudy
7:00 PM 41 °F - 38 °F 83% 29.74 in 16 mi North 5.8 mph - -   Partly Cloudy
7:00 PM 41.0 °F 37.1 °F 37.4 °F 87% 29.68 in 6.2 mi North 5.8 mph - N/A   Partly Cloudy
7:30 PM 39.2 °F 35.0 °F 37.4 °F 93% 29.71 in 6.2 mi NNE 5.8 mph - N/A   Partly Cloudy
8:00 PM 41.0 °F - 37.4 °F 87% 29.71 in - NNW 2.3 mph - N/A   Clear
8:30 PM 39.2 °F 37.0 °F 35.6 °F 87% 29.74 in - NNE 3.5 mph - N/A   Clear
9:00 PM 37.4 °F 34.9 °F 35.6 °F 93% 29.74 in - NNW 3.5 mph - N/A   Clear
9:30 PM 37.4 °F - 33.8 °F 87% 29.74 in - Variable 1.2 mph - N/A   Clear
10:00 PM 37.4 °F - 32.0 °F 81% 29.74 in - Calm Calm - N/A   Clear
10:30 PM 33.8 °F - 33.8 °F 100% 29.74 in - ENE 2.3 mph - N/A   Clear
11:00 PM 33.8 °F - 32.0 °F 93% 29.77 in - NNE 1.2 mph - N/A   Clear
11:30 PM 33.8 °F 30.8 °F 30.2 °F 87% 29.77 in - WSW 3.5 mph - N/A   Clear